x

Matinicus Rock, Me (mism1) Weather Station

8:00am - Sun 23rd Jul 2017 All times are EDT. -4 hours from GMT.

  • Wind
    14mph, 15mph gusts
  • Air Temp 57°f
  • Sea Pressure 1011mb
  • Matinicus Rock, Me
  • Matinicus Rock, Me

More Historic Weather Station data

Upgrade to MSW Pro to gain access to the past 30 days of data for over 8000 Wavebouys and Weather Stations around the globe.

Join Pro

Comparision Forecast

View Surf forecast
   
Sun 07/23 8:00am 14 15 mph 1011mb 57f
7:00am 14 14 mph 1010.5mb 56f
6:00am 18 20 mph 1010.1mb 57f
5:00am 17 18 mph 1010mb 58f
4:00am 14 14 mph 1009.7mb 59f
3:00am 22 22 mph 1009.1mb 62f
2:00am 20 21 mph 1009.4mb 61f
1:00am 18 18 mph 1009.3mb 64f
12:00am 14 15 mph 1008.8mb 64f
Sat 07/22 11:00pm 6 7 mph 1008.3mb 64f
10:00pm 11 11 mph 1008.1mb 68f
9:00pm 10 10 mph 1008.2mb 64f
8:00pm 20 21 mph 1007.6mb 68f
7:00pm 24 24 mph 1007.3mb 68f
6:00pm 23 24 mph 1007.4mb 66f
5:00pm 25 26 mph 1007.3mb 67f
4:00pm 23 23 mph 1008.1mb 65f
3:00pm 24 24 mph 1008.3mb 67f
2:00pm 21 22 mph 1008.8mb 67f
1:00pm 17 18 mph 1009.4mb 65f
12:00pm 16 16 mph 1009.6mb 66f
11:00am 7 7 mph 1009.5mb 67f
10:00am 6 6 mph 1009.9mb 68f
9:00am 9 9 mph 1010mb 65f
8:00am 7 7 mph 1009.6mb 66f
7:00am 3 6 mph 1009.1mb 65f
6:00am 3 5 mph 1008.6mb 68f
5:00am 6 7 mph 1008.7mb 67f
4:00am 18 18 mph 1008mb 66f
3:00am 14 15 mph 1007.6mb 67f
2:00am 17 17 mph 1007.3mb 70f
1:00am 16 16 mph 1007.3mb 67f
12:00am 17 17 mph 1007.1mb 64f
Fri 07/21 11:00pm 14 15 mph 1007.1mb 64f
10:00pm 22 23 mph 1007mb 66f
9:00pm 24 25 mph 1006.8mb 66f
8:00pm 23 24 mph 1006.6mb 66f
7:00pm 24 24 mph 1006.7mb 68f
6:00pm 23 24 mph 1006.5mb 66f
5:00pm 18 20 mph 1006.6mb 65f
4:00pm 22 22 mph 1006.7mb 69f
3:00pm 20 20 mph 1007.4mb 66f
2:00pm 17 17 mph 1008mb 68f
1:00pm 14 15 mph 1008.3mb 66f
12:00pm 10 11 mph 1008.8mb 68f
11:00am 11 11 mph 1009.6mb 67f
10:00am 9 9 mph 1009.3mb 64f
9:00am 7 8 mph 1008.8mb 66f
8:00am 10 10 mph 1009.1mb 64f
7:00am 7 7 mph 1008.9mb 64f
6:00am 7 7 mph 1008.6mb 64f
5:00am 9 9 mph 1008.4mb 64f
4:00am 10 10 mph 1008mb 64f
3:00am 6 6 mph 1007.7mb 66f
2:00am 10 10 mph 1008.3mb 65f
1:00am 10 10 mph 1008.3mb 67f
12:00am 6 9 mph 1008.6mb 67f
Thu 07/20 11:00pm 7 7 mph 1008.8mb 68f
10:00pm 7 8 mph 1008.9mb 67f
9:00pm 17 17 mph 1009mb 69f
8:00pm 11 11 mph 1009.4mb 66f
7:00pm 13 13 mph 1009.3mb 64f
6:00pm 10 11 mph 1009.7mb 65f
5:00pm 14 15 mph 1010mb 67f
4:00pm 16 17 mph 1010mb 67f
3:00pm 16 16 mph 1010.6mb 68f
2:00pm 14 14 mph 1011.3mb 69f
1:00pm 8 9 mph 1011.9mb 70f
12:00pm 8 8 mph 1012.4mb 72f
11:00am 7 7 mph 1012.8mb 72f
10:00am 9 9 mph 1012.4mb 67f
9:00am 8 8 mph 1012.9mb 70f
8:00am 9 9 mph 1013.4mb 64f
7:00am 7 8 mph 1012.8mb 65f
6:00am 13 14 mph 1012.5mb 64f
5:00am 7 8 mph 1012.3mb 65f
4:00am 3 5 mph 1011.8mb 67f
3:00am 6 7 mph 1012mb 65f
2:00am 7 7 mph 1012.3mb 65f
1:00am 3 3 mph 1012.7mb 64f
12:00am 2 3 mph 1012.8mb 63f
Wed 07/19 11:00pm 3 5 mph 1013.3mb 62f
10:00pm 2 3 mph 1013.3mb 61f
9:00pm 14 15 mph 1012.8mb 65f
8:00pm 15 15 mph 1012.7mb 63f
7:00pm 17 17 mph 1012.6mb 63f
6:00pm 11 11 mph 1013mb 64f
5:00pm 10 10 mph 1013.2mb 64f
4:00pm 11 13 mph 1013.5mb 63f
3:00pm 9 9 mph 1014mb 64f
2:00pm 7 7 mph 1014.5mb 66f